GW5176 Weather Reports


time (UTC)temp
C
wind
direction
speed
KPH
gust
KPH
rain 1hr
cm
rain 24hr
cm
rain mn
cm
humidity
%
barometer
mb
20260507201553 34 254 1.6 3.2 0.00 0.00 0.00 11 1010.0
20260507201050 34 246 1.6 4.8 0.00 0.00 0.00 11 1010.0
20260507200545 35 246 0.0 6.4 0.00 0.00 0.00 11 1010.2
20260507200042 34 241 1.6 3.2 0.00 0.00 0.00 10 1010.4
20260507195539 34 152 3.2 4.8 0.00 0.00 0.00 11 1010.3
20260507195037 34 259 4.8 6.4 0.00 0.00 0.00 11 1010.4
20260507194533 34 245 0.0 3.2 0.00 0.00 0.00 12 1010.6
20260507194029 33 265 6.4 6.4 0.00 0.00 0.00 11 1010.9
20260507193526 33 253 1.6 3.2 0.00 0.00 0.00 11 1010.8
20260507193023 33 256 1.6 4.8 0.00 0.00 0.00 11 1011.1
20260507192519 33 244 0.0 3.2 0.00 0.00 0.00 13 1010.9
20260507192016 33 331 6.4 9.7 0.00 0.00 0.00 11 1010.9
20260507191512 33 198 3.2 6.4 0.00 0.00 0.00 11 1011.1
20260507191009 33 225 3.2 3.2 0.00 0.00 0.00 12 1011.2
20260507190506 33 247 1.6 6.4 0.00 0.00 0.00 13 1011.1
20260507190006 33 155 8.0 12.9 0.00 0.00 0.00 12 1011.2
20260507185502 32 285 4.8 6.4 0.00 0.00 0.00 12 1011.4
20260507184958 32 242 1.6 3.2 0.00 0.00 0.00 13 1011.3
20260507184457 32 232 1.6 3.2 0.00 0.00 0.00 13 1011.4
20260507183955 33 211 3.2 3.2 0.00 0.00 0.00 10 1011.6
20260507183450 32 253 3.2 4.8 0.00 0.00 0.00 12 1011.7
20260507182948 32 243 3.2 4.8 0.00 0.00 0.00 12 1011.6
20260507182444 32 245 1.6 4.8 0.00 0.00 0.00 12 1011.8
20260507181940 32 244 1.6 3.2 0.00 0.00 0.00 12 1011.9
20260507181436 32 275 6.4 9.7 0.00 0.00 0.00 11 1012.0
20260507180933 32 241 3.2 4.8 0.00 0.00 0.00 11 1011.9
20260507180430 32 250 1.6 3.2 0.00 0.00 0.00 10 1012.0
20260507175926 32 240 1.6 3.2 0.00 0.00 0.00 11 1012.1
20260507175423 31 269 3.2 4.8 0.00 0.00 0.00 11 1012.0
20260507174921 31 256 0.0 6.4 0.00 0.00 0.00 11 1012.2
20260507174418 32 239 0.0 3.2 0.00 0.00 0.00 11 1012.1
20260507173916 32 242 1.6 3.2 0.00 0.00 0.00 11 1012.2
20260507173412 31 240 3.2 4.8 0.00 0.00 0.00 11 1012.3
20260507172908 31 243 1.6 6.4 0.00 0.00 0.00 11 1012.3
20260507172405 31 244 1.6 3.2 0.00 0.00 0.00 11 1012.4
20260507171901 31 239 4.8 4.8 0.00 0.00 0.00 11 1012.5
20260507171358 30 240 0.0 3.2 0.00 0.00 0.00 13 1012.5
20260507170855 30 241 1.6 4.8 0.00 0.00 0.00 14 1012.6
20260507170351 30 242 0.0 3.2 0.00 0.00 0.00 14 1012.5
20260507165848 30 244 0.0 1.6 0.00 0.00 0.00 13 1012.7
20260507165344 30 228 1.6 3.2 0.00 0.00 0.00 13 1012.7
20260507164840 30 244 1.6 4.8 0.00 0.00 0.00 16 1012.8
20260507164337 30 288 3.2 3.2 0.00 0.00 0.00 15 1012.6
20260507163834 30 166 4.8 6.4 0.00 0.00 0.00 13 1012.7
20260507163332 29 237 3.2 4.8 0.00 0.00 0.00 14 1012.7
20260507162828 28 238 3.2 4.8 0.00 0.00 0.00 15 1012.8
20260507162323 28 234 3.2 6.4 0.00 0.00 0.00 15 1012.8
20260507161820 28 240 3.2 4.8 0.00 0.00 0.00 17 1012.9
20260507161317 28 239 0.0 3.2 0.00 0.00 0.00 18 1012.9
20260507160814 28 249 1.6 1.6 0.00 0.00 0.00 19 1013.1
20260507160309 27 238 0.0 3.2 0.00 0.00 0.00 22 1013.1
20260507155806 27 254 3.2 3.2 0.00 0.00 0.00 21 1013.0
20260507155306 26 240 1.6 1.6 0.00 0.00 0.00 22 1013.1
20260507154758 26 243 0.0 3.2 0.00 0.00 0.00 23 1013.3
20260507154256 26 242 0.0 4.8 0.00 0.00 0.00 23 1013.1
20260507153752 25 239 1.6 1.6 0.00 0.00 0.00 24 1013.1
20260507153249 25 243 0.0 1.6 0.00 0.00 0.00 25 1013.0
20260507152746 25 246 1.6 3.2 0.00 0.00 0.00 26 1013.2
20260507152242 25 249 1.6 3.2 0.00 0.00 0.00 25 1013.0
20260507151738 25 240 0.0 1.6 0.00 0.00 0.00 25 1013.3
20260507151234 24 242 0.0 0.0 0.00 0.00 0.00 26 1013.1
20260507150732 23 243 0.0 0.0 0.00 0.00 0.00 29 1013.2
20260507150228 23 243 1.6 3.2 0.00 0.00 0.00 29 1013.3
20260507145724 23 245 0.0 1.6 0.00 0.00 0.00 29 1013.2
20260507145221 22 242 0.0 0.0 0.00 0.00 0.00 28 1013.2
20260507144718 22 249 0.0 1.6 0.00 0.00 0.00 29 1013.1
20260507144216 22 248 1.6 3.2 0.00 0.00 0.00 28 1013.0
20260507143712 22 242 0.0 1.6 0.00 0.00 0.00 29 1013.1
20260507143209 21 249 0.0 1.6 0.00 0.00 0.00 30 1012.9
20260507142704 21 244 0.0 1.6 0.00 0.00 0.00 32 1013.2
20260507142202 21 242 1.6 1.6 0.00 0.00 0.00 31 1013.1
20260507141658 21 255 1.6 3.2 0.00 0.00 0.00 30 1013.1
20260507141155 21 252 1.6 1.6 0.00 0.00 0.00 30 1013.0
20260507140651 21 246 0.0 0.0 0.00 0.00 0.00 31 1012.9
20260507140149 21 241 0.0 0.0 0.00 0.00 0.00 32 1012.9
20260507135646 21 244 0.0 0.0 0.00 0.00 0.00 32 1012.8
20260507135143 21 243 0.0 0.0 0.00 0.00 0.00 31 1012.9
20260507134639 20 242 0.0 0.0 0.00 0.00 0.00 33 1012.8
20260507134136 19 241 0.0 0.0 0.00 0.00 0.00 33 1012.9
20260507133632 18 244 0.0 0.0 0.00 0.00 0.00 36 1012.7
20260507133129 17 244 0.0 0.0 0.00 0.00 0.00 36 1012.5
20260507132625 17 245 0.0 0.0 0.00 0.00 0.00 37 1012.5
20260507132121 17 245 0.0 1.6 0.00 0.00 0.00 35 1012.6
20260507131618 17 244 0.0 0.0 0.00 0.00 0.00 37 1012.8
20260507131116 17 245 0.0 1.6 0.00 0.00 0.00 36 1012.4
20260507130613 17 248 1.6 1.6 0.00 0.00 0.00 35 1012.6
20260507130111 17 249 1.6 1.6 0.00 0.00 0.00 35 1012.5
20260507125610 17 245 0.0 1.6 0.00 0.00 0.00 36 1012.7
20260507125107 17 249 1.6 1.6 0.00 0.00 0.00 34 1012.3
20260507124603 17 244 0.0 0.0 0.00 0.00 0.00 35 1012.5
20260507124101 17 243 0.0 0.0 0.00 0.00 0.00 34 1012.6
20260507123559 17 244 0.0 0.0 0.00 0.00 0.00 33 1012.4
20260507123056 17 245 0.0 0.0 0.00 0.00 0.00 33 1012.4
20260507122551 17 249 0.0 0.0 0.00 0.00 0.00 33 1012.4
20260507122047 17 244 0.0 0.0 0.00 0.00 0.00 33 1012.5
20260507121543 17 244 0.0 0.0 0.00 0.00 0.00 33 1012.3
20260507121039 17 244 0.0 0.0 0.00 0.00 0.00 33 1012.3
20260507120535 17 244 0.0 1.6 0.00 0.00 0.00 35 1012.3
20260507120032 17 243 0.0 0.0 0.00 0.00 0.00 34 1012.4
20260507115528 17 244 0.0 0.0 0.00 0.00 0.00 34 1012.3
20260507115024 17 245 0.0 0.0 0.00 0.00 0.00 34 1012.4
20260507114520 17 243 0.0 0.0 0.00 0.00 0.00 34 1012.5
20260507114018 17 249 1.6 3.2 0.00 0.00 0.00 34 1012.4
20260507113515 17 244 0.0 0.0 0.00 0.00 0.00 38 1012.5
20260507113012 18 248 1.6 1.6 0.00 0.00 0.00 33 1012.5
20260507112510 18 248 1.6 3.2 0.00 0.00 0.00 33 1012.3
20260507112006 18 248 1.6 3.2 0.00 0.00 0.00 32 1012.3
20260507111504 18 243 0.0 1.6 0.00 0.00 0.00 32 1012.4
20260507110959 18 246 1.6 1.6 0.00 0.00 0.00 31 1012.4
20260507110456 18 244 0.0 0.0 0.00 0.00 0.00 31 1012.5
20260507105952 18 242 0.0 0.0 0.00 0.00 0.00 32 1012.5
20260507105449 18 242 0.0 0.0 0.00 0.00 0.00 32 1012.5
20260507104946 18 242 0.0 0.0 0.00 0.00 0.00 32 1012.7
20260507104443 18 242 0.0 0.0 0.00 0.00 0.00 35 1012.5
20260507103939 19 242 0.0 0.0 0.00 0.00 0.00 33 1012.6
20260507103436 19 241 0.0 0.0 0.00 0.00 0.00 30 1012.8
20260507102932 20 243 0.0 0.0 0.00 0.00 0.00 33 1012.7
20260507102429 20 243 0.0 0.0 0.00 0.00 0.00 30 1012.8
20260507101925 20 244 0.0 1.6 0.00 0.00 0.00 28 1012.8
20260507101420 19 242 0.0 1.6 0.00 0.00 0.00 29 1012.8
20260507100917 19 243 1.6 1.6 0.00 0.00 0.00 29 1012.9
20260507100415 19 243 0.0 0.0 0.00 0.00 0.00 31 1012.9
20260507095913 19 234 0.0 1.6 0.00 0.00 0.00 30 1013.1
20260507095410 18 243 1.6 1.6 0.00 0.00 0.00 30 1012.9
20260507094907 19 241 0.0 1.6 0.00 0.00 0.00 30 1013.0
20260507094403 19 242 0.0 0.0 0.00 0.00 0.00 30 1013.1
20260507093900 19 241 0.0 0.0 0.00 0.00 0.00 30 1013.1
20260507093358 19 242 0.0 0.0 0.00 0.00 0.00 30 1012.9
20260507092856 19 242 0.0 0.0 0.00 0.00 0.00 31 1013.0
20260507092352 18 243 0.0 1.6 0.00 0.00 0.00 32 1013.1
20260507091849 18 241 0.0 1.6 0.00 0.00 0.00 32 1013.0
20260507091345 18 239 0.0 0.0 0.00 0.00 0.00 35 1012.9
20260507090841 18 241 0.0 0.0 0.00 0.00 0.00 34 1012.7
20260507090337 19 239 0.0 1.6 0.00 0.00 0.00 34 1012.7
20260507085834 19 241 0.0 0.0 0.00 0.00 0.00 32 1012.8
20260507085331 19 241 0.0 0.0 0.00 0.00 0.00 31 1012.7
20260507084829 19 239 0.0 0.0 0.00 0.00 0.00 31 1013.1
20260507084325 20 241 0.0 0.0 0.00 0.00 0.00 31 1012.9
20260507083822 19 241 0.0 0.0 0.00 0.00 0.00 31 1013.1
20260507083319 20 234 1.6 1.6 0.00 0.00 0.00 32 1013.0
20260507082815 20 243 0.0 1.6 0.00 0.00 0.00 32 1013.1
20260507082311 20 242 0.0 1.6 0.00 0.00 0.00 33 1012.9
20260507081808 20 241 0.0 0.0 0.00 0.00 0.00 31 1013.1
20260507081304 20 235 1.6 1.6 0.00 0.00 0.00 30 1013.1
20260507080801 20 241 0.0 0.0 0.00 0.00 0.00 29 1013.1
20260507080257 20 242 0.0 0.0 0.00 0.00 0.00 29 1013.2
20260507075752 20 243 0.0 0.0 0.00 0.00 0.00 32 1013.0
20260507075248 20 241 0.0 0.0 0.00 0.00 0.00 30 1013.3
20260507074745 20 241 0.0 0.0 0.00 0.00 0.00 30 1013.3
20260507074243 20 244 0.0 0.0 0.00 0.00 0.00 30 1012.9
20260507073739 20 240 0.0 0.0 0.00 0.00 0.00 30 1013.1
20260507073236 21 243 0.0 0.0 0.00 0.00 0.00 29 1013.2
20260507072734 21 243 0.0 0.0 0.00 0.00 0.00 30 1013.1
20260507072231 21 244 0.0 0.0 0.00 0.00 0.00 29 1013.2
20260507071729 21 243 0.0 0.0 0.00 0.00 0.00 30 1013.2
20260507071225 21 244 0.0 0.0 0.00 0.00 0.00 29 1013.2
20260507070722 21 242 0.0 0.0 0.00 0.00 0.00 29 1013.2
20260507070219 21 241 0.0 1.6 0.00 0.00 0.00 29 1013.1
20260507065715 21 242 0.0 0.0 0.00 0.00 0.00 30 1013.2
20260507065212 21 242 0.0 0.0 0.00 0.00 0.00 29 1013.2
20260507064709 21 241 0.0 0.0 0.00 0.00 0.00 29 1013.3
20260507064209 21 241 0.0 0.0 0.00 0.00 0.00 31 1013.2
20260507063705 21 241 0.0 0.0 0.00 0.00 0.00 30 1013.3
20260507063202 21 241 0.0 0.0 0.00 0.00 0.00 29 1013.1
20260507062659 21 241 0.0 0.0 0.00 0.00 0.00 31 1013.2
20260507062156 21 242 0.0 0.0 0.00 0.00 0.00 31 1013.2
20260507061654 21 242 0.0 0.0 0.00 0.00 0.00 34 1013.1
20260507061152 21 242 0.0 0.0 0.00 0.00 0.00 35 1013.2
20260507060650 21 242 0.0 0.0 0.00 0.00 0.00 36 1013.2
20260507060146 21 242 0.0 0.0 0.00 0.00 0.00 33 1013.2
20260507055641 21 242 0.0 0.0 0.00 0.00 0.00 32 1013.2
20260507055137 21 242 0.0 0.0 0.00 0.00 0.00 31 1013.3
20260507054633 22 242 0.0 0.0 0.00 0.00 0.00 30 1013.1
20260507054130 22 242 0.0 0.0 0.00 0.00 0.00 30 1013.0
20260507053628 22 242 0.0 0.0 0.00 0.00 0.00 30 1013.0
20260507053126 22 241 0.0 0.0 0.00 0.00 0.00 29 1013.1
20260507052624 22 242 0.0 0.0 0.00 0.00 0.00 29 1013.1
20260507052120 22 242 0.0 0.0 0.00 0.00 0.00 26 1013.2
20260507051618 22 242 0.0 0.0 0.00 0.00 0.00 27 1013.0
20260507051109 23 243 0.0 0.0 0.00 0.00 0.00 27 1013.2
20260507050605 23 242 0.0 0.0 0.00 0.00 0.00 31 1012.9
20260507045559 22 246 0.0 0.0 0.00 0.00 0.00 25 1012.8
20260507045056 22 242 0.0 0.0 0.00 0.00 0.00 28 1013.0
20260507044553 22 243 0.0 0.0 0.00 0.00 0.00 30 1013.0
20260507044050 22 243 0.0 0.0 0.00 0.00 0.00 33 1012.8
20260507043545 23 242 0.0 0.0 0.00 0.00 0.00 33 1013.1
20260507043043 23 242 0.0 0.0 0.00 0.00 0.00 30 1012.9
20260507042538 23 242 0.0 0.0 0.00 0.00 0.00 30 1012.8
20260507042034 23 243 0.0 0.0 0.00 0.00 0.00 28 1012.8
20260507041531 23 243 0.0 0.0 0.00 0.00 0.00 26 1012.8
20260507041028 24 244 0.0 0.0 0.00 0.00 0.00 27 1012.6
20260507040524 25 244 0.0 0.0 0.00 0.00 0.00 29 1012.6
20260507040020 25 244 0.0 0.0 0.00 0.00 0.00 27 1012.6
20260507035517 25 244 0.0 0.0 0.00 0.00 0.00 27 1012.6
20260507035013 25 244 0.0 0.0 0.00 0.00 0.00 27 1012.5
20260507034511 25 244 0.0 0.0 0.00 0.00 0.00 24 1012.5
20260507034009 25 244 0.0 0.0 0.00 0.00 0.00 25 1012.2
20260507033506 25 244 0.0 0.0 0.00 0.00 0.00 25 1012.1
20260507033003 26 247 0.0 0.0 0.00 0.00 0.00 23 1012.0
20260507032500 26 245 0.0 1.6 0.00 0.00 0.00 23 1012.0
20260507031956 26 245 0.0 1.6 0.00 0.00 0.00 23 1012.1
20260507031452 26 242 0.0 0.0 0.00 0.00 0.00 23 1012.0
20260507030950 26 245 0.0 0.0 0.00 0.00 0.00 23 1011.9
20260507030447 26 245 0.0 1.6 0.00 0.00 0.00 23 1011.7
20260507025944 26 245 0.0 0.0 0.00 0.00 0.00 22 1011.7
20260507025441 26 244 0.0 0.0 0.00 0.00 0.00 25 1011.7
20260507024939 27 245 0.0 1.6 0.00 0.00 0.00 22 1011.7
20260507024436 27 250 0.0 3.2 0.00 0.00 0.00 22 1011.6
20260507023931 27 244 0.0 0.0 0.00 0.00 0.00 22 1011.6
20260507023428 27 247 1.6 1.6 0.00 0.00 0.00 21 1011.6
20260507022926 27 252 0.0 1.6 0.00 0.00 0.00 21 1011.5
20260507022423 27 245 3.2 3.2 0.00 0.00 0.00 21 1011.5
20260507021918 27 246 1.6 3.2 0.00 0.00 0.00 21 1011.7
20260507021414 27 245 1.6 3.2 0.00 0.00 0.00 20 1011.4
20260507020912 27 251 3.2 4.8 0.00 0.00 0.00 20 1011.3
20260507020408 28 248 1.6 4.8 0.00 0.00 0.00 20 1011.4
20260507015906 28 244 1.6 3.2 0.00 0.00 0.00 21 1011.3
20260507015404 28 245 3.2 3.2 0.00 0.00 0.00 20 1011.3
20260507014900 28 242 3.2 4.8 0.00 0.00 0.00 19 1011.3
20260507014356 28 242 3.2 3.2 0.00 0.00 0.00 19 1011.3
20260507013853 28 245 0.0 3.2 0.00 0.00 0.00 20 1011.3
20260507013351 29 249 3.2 4.8 0.00 0.00 0.00 19 1011.2
20260507012848 29 243 0.0 4.8 0.00 0.00 0.00 19 1011.3
20260507012343 29 257 1.6 3.2 0.00 0.00 0.00 19 1011.3
20260507011840 29 244 0.0 3.2 0.00 0.00 0.00 19 1011.2
20260507011337 29 282 3.2 4.8 0.00 0.00 0.00 19 1011.3
20260507010831 30 244 4.8 4.8 0.00 0.00 0.00 18 1011.3
20260507010327 29 248 3.2 6.4 0.00 0.00 0.00 18 1011.3
20260507005825 30 271 4.8 9.7 0.00 0.00 0.00 18 1011.5
20260507005322 30 245 0.0 1.6 0.00 0.00 0.00 18 1011.4
20260507004819 30 239 4.8 4.8 0.00 0.00 0.00 18 1011.1
20260507004316 29 285 4.8 6.4 0.00 0.00 0.00 18 1011.3
20260507003813 30 286 6.4 9.7 0.00 0.00 0.00 18 1011.2
20260507003308 30 256 3.2 4.8 0.00 0.00 0.00 18 1011.2
20260507002803 30 266 3.2 3.2 0.00 0.00 0.00 18 1011.3
20260507002259 30 274 0.0 1.6 0.00 0.00 0.00 19 1011.4
20260507001757 30 236 3.2 3.2 0.00 0.00 0.00 17 1011.2
20260507001254 30 252 4.8 6.4 0.00 0.00 0.00 17 1011.4
20260507000750 30 245 3.2 3.2 0.00 0.00 0.00 17 1011.2
20260507000246 30 243 0.0 4.8 0.00 0.00 0.00 19 1011.2
20260506235743 30 223 0.0 6.4 0.00 0.00 0.00 18 1011.2
20260506235238 30 238 4.8 11.3 0.00 0.00 0.00 18 1011.3
20260506234735 30 253 3.2 6.4 0.00 0.00 0.00 18 1011.4
20260506234232 30 273 3.2 4.8 0.00 0.00 0.00 17 1011.6
20260506233730 30 261 1.6 4.8 0.00 0.00 0.00 17 1011.4
20260506233226 30 241 1.6 4.8 0.00 0.00 0.00 17 1011.5
20260506232723 30 247 0.0 3.2 0.00 0.00 0.00 17 1011.5
20260506232218 30 249 1.6 4.8 0.00 0.00 0.00 18 1011.4
20260506231715 30 0 3.2 4.8 0.00 0.00 0.00 18 1011.8
20260506231214 30 266 3.2 9.7 0.00 0.00 0.00 18 1011.8
20260506230710 30 248 0.0 6.4 0.00 0.00 0.00 18 1011.7
20260506230207 30 285 3.2 9.7 0.00 0.00 0.00 19 1011.7
20260506225703 30 270 1.6 6.4 0.00 0.00 0.00 18 1011.9
20260506225200 30 259 3.2 3.2 0.00 0.00 0.00 18 1011.9
20260506224657 29 242 3.2 3.2 0.00 0.00 0.00 18 1011.9
20260506224154 28 245 0.0 4.8 0.00 0.00 0.00 19 1011.9
20260506223650 30 248 6.4 6.4 0.00 0.00 0.00 17 1012.1
20260506223146 29 262 1.6 9.7 0.00 0.00 0.00 18 1012.2
20260506222643 30 281 4.8 9.7 0.00 0.00 0.00 17 1012.4
20260506222139 30 246 1.6 1.6 0.00 0.00 0.00 18 1012.3
20260506221637 30 247 0.0 1.6 0.00 0.00 0.00 18 1012.2
20260506221135 28 246 0.0 3.2 0.00 0.00 0.00 19 1012.4
20260506220631 30 269 3.2 9.7 0.00 0.00 0.00 18 1012.4
20260506220126 29 250 3.2 3.2 0.00 0.00 0.00 18 1012.5
20260506215623 28 254 3.2 9.7 0.00 0.00 0.00 18 1012.5
20260506215119 28 251 1.6 6.4 0.00 0.00 0.00 18 1012.6
20260506214616 28 255 0.0 4.8 0.00 0.00 0.00 19 1012.7
20260506214113 28 250 3.2 4.8 0.00 0.00 0.00 18 1012.7
20260506213611 28 239 0.0 4.8 0.00 0.00 0.00 18 1013.0
20260506213108 29 273 1.6 9.7 0.00 0.00 0.00 18 1013.1
20260506212605 28 237 3.2 12.9 0.00 0.00 0.00 18 1013.2
20260506212100 29 108 4.8 6.4 0.00 0.00 0.00 17 1013.1
20260506211556 30 282 6.4 6.4 0.00 0.00 0.00 18 1013.2
20260506211053 29 246 0.0 1.6 0.00 0.00 0.00 19 1013.2
20260506210550 28 236 0.0 3.2 0.00 0.00 0.00 18 1013.4
20260506210046 28 310 6.4 11.3 0.00 0.00 0.00 19 1013.6
20260506205543 28 250 3.2 9.7 0.00 0.00 0.00 19 1013.6
20260506205038 28 223 3.2 4.8 0.00 0.00 0.00 18 1013.7
20260506204537 28 256 1.6 6.4 0.00 0.00 0.00 20 1013.7
20260506204033 28 247 3.2 3.2 0.00 0.00 0.00 20 1013.6
20260506203532 28 221 3.2 11.3 0.00 0.00 0.00 19 1013.7
20260506203028 28 216 4.8 4.8 0.00 0.00 0.00 19 1013.7
20260506202525 28 236 0.0 3.2 0.00 0.00 0.00 18 1014.0
20260506202022 28 232 3.2 11.3 0.00 0.00 0.00 19 1014.0